Погода в Сен-Мартен-де-Ре

Франция     46°11′55″N   1°21′33″W
темп.,
°C
ветер,
м/с
пор.,
м/с
влажн.,
%
обл.,
%
осадки,
мм/ч
давл.,
гПа
погр.,
м
13 мая, чт
чт1323:00+13з12148033 0.4 10131126
02:00+12з1214795 1.3 10131082
05:00+12з11137742 0.6 10121075
08:00+12з9107299 0.9 10121177
11:00+13зюз88696 0.1 10111120
14:00+13зюз77694 0.1 1011954
17:00+13з78736 0.0 1010965
20:00+13з89765 0.1 1010955
14 мая, пт
пт1423:00+12зсз8108396 0.6 1011727
02:00+12зсз79720 0.6 1011735
05:00+11сз68752 0.0 1012819
08:00+12зсз687316 0.0 1013918
11:00+13зсз786810 0.1 10151134
14:00+13з886998 0.1 10151002
17:00+13з8869100 0.0 10151019
20:00+13зюз7871100 0.0 10141098
15 мая, сб
сб1523:00+12юз8977100 0.4 1013735
02:00+12ююз121490100 4.0 1009912
05:00+13юз121593100 6.1 1007992
08:00+14з81087100 6.4 1008794
11:00+14зюз91181100 0.3 10091012
14:00+14зюз91081100 0.4 1009894
17:00+14зюз91185100 0.4 1009809
20:00+13зюз91189100 1.1 1009724
16 мая, вс
вс1623:00+13зюз81185100 0.7 1009787
02:00+13з10128469 1.9 1009901
05:00+13з101278100 0.1 10091041
08:00+13зюз1113775 0.3 10091120
11:00+13зюз1114775 0.2 10091201
14:00+13зюз1214770 0.4 10101234
17:00+13зюз1316792 0.3 10101249
20:00+13зюз1316820 0.8 10101187
17 мая, пн
пн1723:00+13з1215815 0.8 10121145
02:00+13з1214805 1.4 10121103
05:00+12з12147928 1.2 10121086
08:00+13з11137763 2.8 10131130
11:00+13з12147887 1.4 10141313
14:00+13з13157813 2.4 10161276
17:00+13зсз1215761 0.3 10181270
20:00+13зсз1114770 0.4 10191120